Year,Month,Day,Hour,Minute,Value (Times are PST for temperature in C)
2008,03,31,00,00,5.40
2008,03,31,00,01,5.50
2008,03,31,00,02,5.50
2008,03,31,00,03,5.50
2008,03,31,00,04,5.50
2008,03,31,00,05,5.50
2008,03,31,00,06,5.50
2008,03,31,00,07,5.50
2008,03,31,00,08,5.50
2008,03,31,00,09,5.60
2008,03,31,00,10,5.60
2008,03,31,00,11,5.50
2008,03,31,00,12,5.60
2008,03,31,00,13,5.50
2008,03,31,00,14,5.50
2008,03,31,00,15,5.50
2008,03,31,00,16,5.50
2008,03,31,00,17,5.50
2008,03,31,00,18,5.50
2008,03,31,00,19,5.50
2008,03,31,00,20,5.40
2008,03,31,00,21,5.40
2008,03,31,00,22,5.40
2008,03,31,00,23,5.40
2008,03,31,00,24,5.40
2008,03,31,00,25,5.40
2008,03,31,00,26,5.40
2008,03,31,00,27,5.30
2008,03,31,00,28,5.30
2008,03,31,00,29,5.30
2008,03,31,00,30,5.30
2008,03,31,00,31,5.30
2008,03,31,00,32,5.30
2008,03,31,00,33,5.30
2008,03,31,00,34,5.20
2008,03,31,00,35,5.20
2008,03,31,00,36,5.20
2008,03,31,00,37,5.20
2008,03,31,00,38,5.20
2008,03,31,00,39,5.20
2008,03,31,00,40,5.20
2008,03,31,00,41,5.20
2008,03,31,00,42,5.10
2008,03,31,00,43,5.10
2008,03,31,00,44,5.10
2008,03,31,00,45,5.10
2008,03,31,00,46,5.10
2008,03,31,00,47,5.10
2008,03,31,00,48,5.10
2008,03,31,00,49,5.00
2008,03,31,00,50,5.00
2008,03,31,00,51,5.00
2008,03,31,00,52,4.90
2008,03,31,00,53,4.90
2008,03,31,00,54,4.90
2008,03,31,00,55,4.90
2008,03,31,00,56,4.90
2008,03,31,00,57,4.90
2008,03,31,00,58,4.80
2008,03,31,00,59,4.80
2008,03,31,01,00,4.80
2008,03,31,01,01,4.80
2008,03,31,01,02,4.80
2008,03,31,01,03,4.70
2008,03,31,01,04,4.70
2008,03,31,01,05,4.70
2008,03,31,01,06,4.70
2008,03,31,01,07,4.70
2008,03,31,01,08,4.70
2008,03,31,01,09,4.70
2008,03,31,01,10,4.70
2008,03,31,01,11,4.70
2008,03,31,01,12,4.70
2008,03,31,01,13,4.70
2008,03,31,01,14,4.70
2008,03,31,01,15,4.70
2008,03,31,01,16,4.70
2008,03,31,01,17,4.70
2008,03,31,01,18,4.70
2008,03,31,01,19,4.70
2008,03,31,01,20,4.70
2008,03,31,01,21,4.70
2008,03,31,01,22,4.70
2008,03,31,01,23,4.60
2008,03,31,01,24,4.60
2008,03,31,01,25,4.60
2008,03,31,01,26,4.60
2008,03,31,01,27,4.60
2008,03,31,01,28,4.60
2008,03,31,01,29,4.60
2008,03,31,01,30,4.50
2008,03,31,01,31,4.50
2008,03,31,01,32,4.50
2008,03,31,01,33,4.40
2008,03,31,01,34,4.40
2008,03,31,01,35,4.40
2008,03,31,01,36,4.40
2008,03,31,01,37,4.40
2008,03,31,01,38,4.40
2008,03,31,01,39,4.40
2008,03,31,01,40,4.40
2008,03,31,01,41,4.40
2008,03,31,01,42,4.40
2008,03,31,01,43,4.40
2008,03,31,01,44,4.40
2008,03,31,01,45,4.40
2008,03,31,01,46,4.40
2008,03,31,01,47,4.40
2008,03,31,01,48,4.40
2008,03,31,01,49,4.40
2008,03,31,01,50,4.40
2008,03,31,01,51,4.30
2008,03,31,01,52,4.30
2008,03,31,01,53,4.30
2008,03,31,01,54,4.30
2008,03,31,01,55,4.30
2008,03,31,01,56,4.30
2008,03,31,01,57,4.20
2008,03,31,01,58,4.20
2008,03,31,01,59,4.20
2008,03,31,02,00,4.30
2008,03,31,02,01,4.30
2008,03,31,02,02,4.30
2008,03,31,02,03,4.30
2008,03,31,02,04,4.30
2008,03,31,02,05,4.30
2008,03,31,02,06,4.30
2008,03,31,02,07,4.30
2008,03,31,02,08,4.30
2008,03,31,02,09,4.30
2008,03,31,02,10,4.30
2008,03,31,02,11,4.30
2008,03,31,02,12,4.30
2008,03,31,02,13,4.30
2008,03,31,02,14,4.30
2008,03,31,02,15,4.30
2008,03,31,02,16,4.40
2008,03,31,02,17,4.40
2008,03,31,02,18,4.40
2008,03,31,02,19,4.40
2008,03,31,02,20,4.40
2008,03,31,02,21,4.30
2008,03,31,02,22,4.30
2008,03,31,02,23,4.30
2008,03,31,02,24,4.30
2008,03,31,02,25,4.30
2008,03,31,02,26,4.20
2008,03,31,02,27,4.20
2008,03,31,02,28,4.20
2008,03,31,02,29,4.20
2008,03,31,02,30,4.10
2008,03,31,02,31,4.10
2008,03,31,02,32,4.10
2008,03,31,02,33,4.10
2008,03,31,02,34,4.10
2008,03,31,02,35,4.10
2008,03,31,02,36,4.10
2008,03,31,02,37,4.10
2008,03,31,02,38,4.10
2008,03,31,02,39,4.10
2008,03,31,02,40,4.10
2008,03,31,02,41,4.10
2008,03,31,02,42,4.20
2008,03,31,02,43,4.20
2008,03,31,02,44,4.20
2008,03,31,02,45,4.20
2008,03,31,02,46,4.20
2008,03,31,02,47,4.20
2008,03,31,02,48,4.20
2008,03,31,02,49,4.20
2008,03,31,02,50,4.20
2008,03,31,02,51,4.20
2008,03,31,02,52,4.30
2008,03,31,02,53,4.20
2008,03,31,02,54,4.20
2008,03,31,02,55,4.20
2008,03,31,02,56,4.20
2008,03,31,02,57,4.20
2008,03,31,02,58,4.10
2008,03,31,02,59,4.10
2008,03,31,03,00,4.10
2008,03,31,03,01,4.10
2008,03,31,03,02,4.10
2008,03,31,03,03,4.10
2008,03,31,03,04,4.00
2008,03,31,03,05,4.00
2008,03,31,03,06,4.00
2008,03,31,03,07,4.00
2008,03,31,03,08,4.00
2008,03,31,03,09,4.00
2008,03,31,03,10,4.00
2008,03,31,03,11,4.10
2008,03,31,03,12,4.10
2008,03,31,03,13,4.10
2008,03,31,03,14,4.10
2008,03,31,03,15,4.10
2008,03,31,03,16,4.10
2008,03,31,03,17,4.10
2008,03,31,03,18,4.10
2008,03,31,03,19,4.10
2008,03,31,03,20,4.10
2008,03,31,03,21,4.10
2008,03,31,03,22,4.00
2008,03,31,03,23,4.00
2008,03,31,03,24,4.00
2008,03,31,03,25,3.90
2008,03,31,03,26,3.90
2008,03,31,03,27,3.90
2008,03,31,03,28,3.90
2008,03,31,03,29,3.90
2008,03,31,03,30,3.90
2008,03,31,03,31,3.90
2008,03,31,03,32,3.90
2008,03,31,03,33,3.80
2008,03,31,03,34,3.80
2008,03,31,03,35,3.80
2008,03,31,03,36,3.80
2008,03,31,03,37,3.80
2008,03,31,03,38,3.80
2008,03,31,03,39,3.80
2008,03,31,03,40,3.80
2008,03,31,03,41,3.80
2008,03,31,03,42,3.80
2008,03,31,03,43,3.80
2008,03,31,03,44,3.80
2008,03,31,03,45,3.80
2008,03,31,03,46,3.80
2008,03,31,03,47,3.70
2008,03,31,03,48,3.70
2008,03,31,03,49,3.70
2008,03,31,03,50,3.70
2008,03,31,03,51,3.70
2008,03,31,03,52,3.70
2008,03,31,03,53,3.70
2008,03,31,03,54,3.80
2008,03,31,03,55,3.80
2008,03,31,03,56,3.80
2008,03,31,03,57,3.80
2008,03,31,03,58,3.80
2008,03,31,03,59,3.80
2008,03,31,04,00,3.80
2008,03,31,04,01,3.80
2008,03,31,04,02,3.80
2008,03,31,04,03,3.80
2008,03,31,04,04,3.80
2008,03,31,04,05,3.80
2008,03,31,04,06,3.80
2008,03,31,04,07,3.80
2008,03,31,04,08,3.80
2008,03,31,04,09,3.80
2008,03,31,04,10,3.80
2008,03,31,04,11,3.70
2008,03,31,04,12,3.70
2008,03,31,04,13,3.70
2008,03,31,04,14,3.70
2008,03,31,04,15,3.70
2008,03,31,04,16,3.70
2008,03,31,04,17,3.70
2008,03,31,04,18,3.70
2008,03,31,04,19,3.70
2008,03,31,04,20,3.70
2008,03,31,04,21,3.70
2008,03,31,04,22,3.60
2008,03,31,04,23,3.60
2008,03,31,04,24,3.60
2008,03,31,04,25,3.60
2008,03,31,04,26,3.60
2008,03,31,04,27,3.60
2008,03,31,04,28,3.60
2008,03,31,04,29,3.50
2008,03,31,04,30,3.50
2008,03,31,04,31,3.50
2008,03,31,04,32,3.50
2008,03,31,04,33,3.50
2008,03,31,04,34,3.50
2008,03,31,04,35,3.50
2008,03,31,04,36,3.40
2008,03,31,04,37,3.40
2008,03,31,04,38,3.40
2008,03,31,04,39,3.40
2008,03,31,04,40,3.40
2008,03,31,04,41,3.40
2008,03,31,04,42,3.40
2008,03,31,04,43,3.40
2008,03,31,04,44,3.40
2008,03,31,04,45,3.40
2008,03,31,04,46,3.30
2008,03,31,04,47,3.30
2008,03,31,04,48,3.30
2008,03,31,04,49,3.30
2008,03,31,04,50,3.30
2008,03,31,04,51,3.30
2008,03,31,04,52,3.30
2008,03,31,04,53,3.30
2008,03,31,04,54,3.30
2008,03,31,04,55,3.30
2008,03,31,04,56,3.30
2008,03,31,04,57,3.20
2008,03,31,04,58,3.20
2008,03,31,04,59,3.20
2008,03,31,05,00,3.20
2008,03,31,05,01,3.20
2008,03,31,05,02,3.20
2008,03,31,05,03,3.20
2008,03,31,05,04,3.20
2008,03,31,05,05,3.20
2008,03,31,05,06,3.20
2008,03,31,05,07,3.20
2008,03,31,05,08,3.10
2008,03,31,05,09,3.10
2008,03,31,05,10,3.10
2008,03,31,05,11,3.10
2008,03,31,05,12,3.10
2008,03,31,05,13,3.00
2008,03,31,05,14,3.00
2008,03,31,05,15,3.00
2008,03,31,05,16,3.00
2008,03,31,05,17,2.90
2008,03,31,05,18,2.90
2008,03,31,05,19,2.90
2008,03,31,05,20,2.90
2008,03,31,05,21,2.90
2008,03,31,05,22,3.00
2008,03,31,05,23,3.00
2008,03,31,05,24,3.00
2008,03,31,05,25,3.00
2008,03,31,05,26,3.00
2008,03,31,05,27,2.90
2008,03,31,05,28,2.90
2008,03,31,05,29,2.90
2008,03,31,05,30,2.90
2008,03,31,05,31,2.90
2008,03,31,05,32,2.90
2008,03,31,05,33,2.90
2008,03,31,05,34,2.90
2008,03,31,05,35,2.90
2008,03,31,05,36,2.90
2008,03,31,05,37,2.80
2008,03,31,05,38,2.80
2008,03,31,05,39,2.80
2008,03,31,05,40,2.80
2008,03,31,05,41,2.80
2008,03,31,05,42,2.80
2008,03,31,05,43,2.80
2008,03,31,05,44,2.80
2008,03,31,05,45,2.80
2008,03,31,05,46,2.70
2008,03,31,05,47,2.70
2008,03,31,05,48,2.70
2008,03,31,05,49,2.70
2008,03,31,05,50,2.70
2008,03,31,05,51,2.70
2008,03,31,05,52,2.60
2008,03,31,05,53,2.60
2008,03,31,05,54,2.60
2008,03,31,05,55,2.60
2008,03,31,05,56,2.60
2008,03,31,05,57,2.60
2008,03,31,05,58,2.60
2008,03,31,05,59,2.50
2008,03,31,06,00,2.50
2008,03,31,06,01,2.50
2008,03,31,06,02,2.50
2008,03,31,06,03,2.50
2008,03,31,06,04,2.50
2008,03,31,06,05,2.50
2008,03,31,06,06,2.50
2008,03,31,06,07,2.50
2008,03,31,06,08,2.50
2008,03,31,06,09,2.40
2008,03,31,06,10,2.40
2008,03,31,06,11,2.40
2008,03,31,06,12,2.40
2008,03,31,06,13,2.40
2008,03,31,06,14,2.40
2008,03,31,06,15,2.40
2008,03,31,06,16,2.40
2008,03,31,06,17,2.40
2008,03,31,06,18,2.40
2008,03,31,06,19,2.40
2008,03,31,06,20,2.40
2008,03,31,06,21,2.30
2008,03,31,06,22,2.30
2008,03,31,06,23,2.30
2008,03,31,06,24,2.30
2008,03,31,06,25,2.30
2008,03,31,06,26,2.20
2008,03,31,06,27,2.20
2008,03,31,06,28,2.20
2008,03,31,06,29,2.20
2008,03,31,06,30,2.20
2008,03,31,06,31,2.20
2008,03,31,06,32,2.20
2008,03,31,06,33,2.20
2008,03,31,06,34,2.20
2008,03,31,06,35,2.20
2008,03,31,06,36,2.20
2008,03,31,06,37,2.20
2008,03,31,06,38,2.20
2008,03,31,06,39,2.20
2008,03,31,06,40,2.20
2008,03,31,06,41,2.20
2008,03,31,06,42,2.20
2008,03,31,06,43,2.20
2008,03,31,06,44,2.20
2008,03,31,06,45,2.20
2008,03,31,06,46,2.20
2008,03,31,06,47,2.20
2008,03,31,06,48,2.10
2008,03,31,06,49,2.10
2008,03,31,06,50,2.10
2008,03,31,06,51,2.10
2008,03,31,06,52,2.00
2008,03,31,06,53,1.90
2008,03,31,06,54,1.90
2008,03,31,06,55,1.90
2008,03,31,06,56,1.80
2008,03,31,06,57,1.80
2008,03,31,06,58,1.70
2008,03,31,06,59,1.70
2008,03,31,07,00,1.60
2008,03,31,07,01,1.60
2008,03,31,07,02,1.50
2008,03,31,07,03,1.50
2008,03,31,07,04,1.50
2008,03,31,07,05,1.60
2008,03,31,07,06,1.70
2008,03,31,07,07,1.70
2008,03,31,07,08,1.70
2008,03,31,07,09,1.70
2008,03,31,07,10,1.70
2008,03,31,07,11,1.70
2008,03,31,07,12,1.70
2008,03,31,07,13,1.60
2008,03,31,07,14,1.60
2008,03,31,07,15,1.60
2008,03,31,07,16,1.60
2008,03,31,07,17,1.70
2008,03,31,07,18,1.70
2008,03,31,07,19,1.70
2008,03,31,07,20,1.80
2008,03,31,07,21,1.80
2008,03,31,07,22,1.80
2008,03,31,07,23,1.80
2008,03,31,07,24,1.80
2008,03,31,07,25,1.80
2008,03,31,07,26,1.70
2008,03,31,07,27,1.70
2008,03,31,07,28,1.70
2008,03,31,07,29,1.70
2008,03,31,07,30,1.70
2008,03,31,07,31,1.70
2008,03,31,07,32,1.70
2008,03,31,07,33,1.70
2008,03,31,07,34,1.70
2008,03,31,07,35,1.80
2008,03,31,07,36,1.80
2008,03,31,07,37,1.80
2008,03,31,07,38,1.80
2008,03,31,07,39,1.80
2008,03,31,07,40,1.80
2008,03,31,07,41,1.90
2008,03,31,07,42,2.00
2008,03,31,07,43,2.00
2008,03,31,07,44,2.10
2008,03,31,07,45,2.20
2008,03,31,07,46,2.30
2008,03,31,07,47,2.30
2008,03,31,07,48,2.40
2008,03,31,07,49,2.50
2008,03,31,07,50,2.60
2008,03,31,07,51,2.70
2008,03,31,07,52,2.80
2008,03,31,07,53,2.80
2008,03,31,07,54,2.90
2008,03,31,07,55,3.00
2008,03,31,07,56,3.00
2008,03,31,07,57,3.10
2008,03,31,07,58,3.20
2008,03,31,07,59,3.20
2008,03,31,08,00,3.20
2008,03,31,08,01,3.30
2008,03,31,08,02,3.30
2008,03,31,08,03,3.40
2008,03,31,08,04,3.40
2008,03,31,08,05,3.50
2008,03,31,08,06,3.50
2008,03,31,08,07,3.60
2008,03,31,08,08,3.70
2008,03,31,08,09,3.70
2008,03,31,08,10,3.70
2008,03,31,08,11,3.80
2008,03,31,08,12,3.80
2008,03,31,08,13,3.90
2008,03,31,08,14,4.00
2008,03,31,08,15,4.00
2008,03,31,08,16,4.10
2008,03,31,08,17,4.10
2008,03,31,08,18,4.10
2008,03,31,08,19,4.20
2008,03,31,08,20,4.20
2008,03,31,08,21,4.20
2008,03,31,08,22,4.20
2008,03,31,08,23,4.30
2008,03,31,08,24,4.30
2008,03,31,08,25,4.40
2008,03,31,08,26,4.40
2008,03,31,08,27,4.50
2008,03,31,08,28,4.50
2008,03,31,08,29,4.50
2008,03,31,08,30,4.50
2008,03,31,08,31,4.50
2008,03,31,08,32,4.50
2008,03,31,08,33,4.50
2008,03,31,08,34,4.50
2008,03,31,08,35,4.40
2008,03,31,08,36,4.40
2008,03,31,08,37,4.40
2008,03,31,08,38,4.40
2008,03,31,08,39,4.40
2008,03,31,08,40,4.40
2008,03,31,08,41,4.40
2008,03,31,08,42,4.50
2008,03,31,08,43,4.50
2008,03,31,08,44,4.50
2008,03,31,08,45,4.50
2008,03,31,08,46,4.50
2008,03,31,08,47,4.50
2008,03,31,08,48,4.50
2008,03,31,08,49,4.60
2008,03,31,08,50,4.60
2008,03,31,08,51,4.60
2008,03,31,08,52,4.60
2008,03,31,08,53,4.70
2008,03,31,08,54,4.70
2008,03,31,08,55,4.70
2008,03,31,08,56,4.80
2008,03,31,08,57,4.80
2008,03,31,08,58,4.80
2008,03,31,08,59,4.80
2008,03,31,09,00,4.70
2008,03,31,09,01,4.70
2008,03,31,09,02,4.70
2008,03,31,09,03,4.70
2008,03,31,09,04,4.80
2008,03,31,09,05,4.80
2008,03,31,09,06,4.80
2008,03,31,09,07,4.80
2008,03,31,09,08,4.90
2008,03,31,09,09,5.00
2008,03,31,09,10,5.10
2008,03,31,09,11,5.10
2008,03,31,09,12,5.20
2008,03,31,09,13,5.20
2008,03,31,09,14,5.10
2008,03,31,09,15,5.10
2008,03,31,09,16,5.10
2008,03,31,09,17,5.00
2008,03,31,09,18,5.00
2008,03,31,09,19,5.00
2008,03,31,09,20,4.90
2008,03,31,09,21,4.90
2008,03,31,09,22,4.90
2008,03,31,09,23,4.90
2008,03,31,09,24,4.90
2008,03,31,09,25,5.00
2008,03,31,09,26,5.00
2008,03,31,09,27,5.00
2008,03,31,09,28,5.10
2008,03,31,09,29,5.10
2008,03,31,09,30,5.10
2008,03,31,09,31,5.10
2008,03,31,09,32,5.10
2008,03,31,09,33,5.10
2008,03,31,09,34,5.10
2008,03,31,09,35,5.10
2008,03,31,09,36,5.10
2008,03,31,09,37,5.20
2008,03,31,09,38,5.20
2008,03,31,09,39,5.20
2008,03,31,09,40,5.30
2008,03,31,09,41,5.30
2008,03,31,09,42,5.30
2008,03,31,09,43,5.40
2008,03,31,09,44,5.40
2008,03,31,09,45,5.50
2008,03,31,09,46,5.50
2008,03,31,09,47,5.70
2008,03,31,09,48,5.70
2008,03,31,09,49,5.80
2008,03,31,09,50,5.80
2008,03,31,09,51,5.80
2008,03,31,09,52,5.80
2008,03,31,09,53,5.80
2008,03,31,09,54,5.80
2008,03,31,09,55,5.80
2008,03,31,09,56,5.80
2008,03,31,09,57,5.80
2008,03,31,09,58,5.80
2008,03,31,09,59,5.80
2008,03,31,10,00,5.80
2008,03,31,10,01,5.80
2008,03,31,10,02,5.80
2008,03,31,10,03,5.70
2008,03,31,10,04,5.70
2008,03,31,10,05,5.80
2008,03,31,10,06,5.80
2008,03,31,10,07,5.80
2008,03,31,10,08,5.80
2008,03,31,10,09,5.80
2008,03,31,10,10,5.80
2008,03,31,10,11,5.80
2008,03,31,10,12,5.70
2008,03,31,10,13,5.70
2008,03,31,10,14,5.60
2008,03,31,10,15,5.60
2008,03,31,10,16,5.60
2008,03,31,10,17,5.60
2008,03,31,10,18,5.70
2008,03,31,10,19,5.70
2008,03,31,10,20,5.70
2008,03,31,10,21,5.70
2008,03,31,10,22,5.70
2008,03,31,10,23,5.70
2008,03,31,10,24,5.70
2008,03,31,10,25,5.80
2008,03,31,10,26,5.90
2008,03,31,10,27,5.90
2008,03,31,10,28,5.90
2008,03,31,10,29,5.90
2008,03,31,10,30,5.90
2008,03,31,10,31,5.90
2008,03,31,10,32,5.80
2008,03,31,10,33,5.70
2008,03,31,10,34,5.70
2008,03,31,10,35,5.70
2008,03,31,10,36,5.80
2008,03,31,10,37,5.90
2008,03,31,10,38,5.90
2008,03,31,10,39,5.90
2008,03,31,10,40,5.90
2008,03,31,10,41,6.00
2008,03,31,10,42,6.00
2008,03,31,10,43,5.90
2008,03,31,10,44,5.80
2008,03,31,10,45,5.80
2008,03,31,10,46,5.70
2008,03,31,10,47,5.70
2008,03,31,10,48,5.60
2008,03,31,10,49,5.50
2008,03,31,10,50,5.40
2008,03,31,10,51,5.30
2008,03,31,10,52,5.30
2008,03,31,10,53,5.20
2008,03,31,10,54,5.20
2008,03,31,10,55,5.20
2008,03,31,10,56,5.20
2008,03,31,10,57,5.10
2008,03,31,10,58,5.10
2008,03,31,10,59,5.10
2008,03,31,11,00,5.10
2008,03,31,11,01,5.10
2008,03,31,11,02,5.10
2008,03,31,11,03,5.00
2008,03,31,11,04,5.00
2008,03,31,11,05,5.00
2008,03,31,11,06,5.00
2008,03,31,11,07,5.00
2008,03,31,11,08,5.10
2008,03,31,11,09,5.10
2008,03,31,11,10,5.10
2008,03,31,11,11,5.20
2008,03,31,11,12,5.30
2008,03,31,11,13,5.50
2008,03,31,11,14,5.60
2008,03,31,11,15,5.70
2008,03,31,11,16,5.80
2008,03,31,11,17,5.90
2008,03,31,11,18,5.90
2008,03,31,11,19,5.90
2008,03,31,11,20,5.90
2008,03,31,11,21,6.00
2008,03,31,11,22,5.90
2008,03,31,11,23,5.90
2008,03,31,11,24,5.90
2008,03,31,11,25,5.90
2008,03,31,11,26,5.90
2008,03,31,11,27,5.80
2008,03,31,11,28,5.70
2008,03,31,11,29,5.70
2008,03,31,11,30,5.70
2008,03,31,11,31,5.70
2008,03,31,11,32,5.70
2008,03,31,11,33,5.70
2008,03,31,11,34,5.80
2008,03,31,11,35,5.80
2008,03,31,11,36,5.80
2008,03,31,11,37,5.90
2008,03,31,11,38,6.00
2008,03,31,11,39,6.00
2008,03,31,11,40,5.90
2008,03,31,11,41,5.80
2008,03,31,11,42,5.80
2008,03,31,11,43,5.90
2008,03,31,11,44,5.90
2008,03,31,11,45,6.00
2008,03,31,11,46,6.10
2008,03,31,11,47,6.20
2008,03,31,11,48,6.30
2008,03,31,11,49,6.30
2008,03,31,11,50,6.30
2008,03,31,11,51,6.20
2008,03,31,11,52,6.20
2008,03,31,11,53,6.10
2008,03,31,11,54,6.00
2008,03,31,11,55,6.00
2008,03,31,11,56,5.90
2008,03,31,11,57,5.80
2008,03,31,11,58,5.70
2008,03,31,11,59,5.70
2008,03,31,12,00,5.60
2008,03,31,12,01,5.50
2008,03,31,12,02,5.50
2008,03,31,12,03,5.50
2008,03,31,12,04,5.60
2008,03,31,12,05,5.60
2008,03,31,12,06,5.70
2008,03,31,12,07,5.80
2008,03,31,12,08,5.90
2008,03,31,12,09,6.00
2008,03,31,12,10,6.00
2008,03,31,12,11,6.20
2008,03,31,12,12,6.30
2008,03,31,12,13,6.40
2008,03,31,12,14,6.50
2008,03,31,12,15,6.50
2008,03,31,12,16,6.50
2008,03,31,12,17,6.60
2008,03,31,12,18,6.50
2008,03,31,12,19,6.50
2008,03,31,12,20,6.40
2008,03,31,12,21,6.50
2008,03,31,12,22,6.50
2008,03,31,12,23,6.50
2008,03,31,12,24,6.60
2008,03,31,12,25,6.60
2008,03,31,12,26,6.70
2008,03,31,12,27,6.70
2008,03,31,12,28,6.80
2008,03,31,12,29,6.80
2008,03,31,12,30,6.70
2008,03,31,12,31,6.70
2008,03,31,12,32,6.70
2008,03,31,12,33,6.60
2008,03,31,12,34,6.60
2008,03,31,12,35,6.60
2008,03,31,12,36,6.60
2008,03,31,12,37,6.60
2008,03,31,12,38,6.70
2008,03,31,12,39,6.70
2008,03,31,12,40,6.70
2008,03,31,12,41,6.80
2008,03,31,12,42,6.80
2008,03,31,12,43,6.80
2008,03,31,12,44,6.80
2008,03,31,12,45,6.80
2008,03,31,12,46,6.80
2008,03,31,12,47,6.90
2008,03,31,12,48,7.00
2008,03,31,12,49,7.10
2008,03,31,12,50,7.20
2008,03,31,12,51,7.20
2008,03,31,12,52,7.20
2008,03,31,12,53,7.20
2008,03,31,12,54,7.20
2008,03,31,12,55,7.20
2008,03,31,12,56,7.20
2008,03,31,12,57,7.00
2008,03,31,12,58,6.90
2008,03,31,12,59,7.00
2008,03,31,13,00,7.00
2008,03,31,13,01,6.90
2008,03,31,13,02,6.90
2008,03,31,13,03,6.80
2008,03,31,13,04,6.80
2008,03,31,13,05,6.90
2008,03,31,13,06,6.90
2008,03,31,13,07,6.90
2008,03,31,13,08,7.00
2008,03,31,13,09,7.10
2008,03,31,13,10,7.20
2008,03,31,13,11,7.20
2008,03,31,13,12,7.20
2008,03,31,13,13,7.30
2008,03,31,13,14,7.20
2008,03,31,13,15,7.20
2008,03,31,13,16,7.10
2008,03,31,13,17,7.00
2008,03,31,13,18,6.90
2008,03,31,13,19,6.90
2008,03,31,13,20,6.90
2008,03,31,13,21,7.00
2008,03,31,13,22,7.10
2008,03,31,13,23,7.20
2008,03,31,13,24,7.20
2008,03,31,13,25,7.20
2008,03,31,13,26,7.30
2008,03,31,13,27,7.40
2008,03,31,13,28,7.40
2008,03,31,13,29,7.30
2008,03,31,13,30,7.20
2008,03,31,13,31,7.20
2008,03,31,13,32,7.10
2008,03,31,13,33,7.10
2008,03,31,13,34,7.20
2008,03,31,13,35,7.20
2008,03,31,13,36,7.20
2008,03,31,13,37,7.30
2008,03,31,13,38,7.50
2008,03,31,13,39,7.50
2008,03,31,13,40,7.60
2008,03,31,13,41,7.60
2008,03,31,13,42,7.50
2008,03,31,13,43,7.60
2008,03,31,13,44,7.60
2008,03,31,13,45,7.70
2008,03,31,13,46,7.80
2008,03,31,13,47,7.80
2008,03,31,13,48,7.80
2008,03,31,13,49,7.80
2008,03,31,13,50,7.90
2008,03,31,13,51,7.90
2008,03,31,13,52,7.80
2008,03,31,13,53,7.70
2008,03,31,13,54,7.60
2008,03,31,13,55,7.50
2008,03,31,13,56,7.40
2008,03,31,13,57,7.40
2008,03,31,13,58,7.40
2008,03,31,13,59,7.50
2008,03,31,14,00,7.50
2008,03,31,14,01,7.50
2008,03,31,14,02,7.50
2008,03,31,14,03,7.50
2008,03,31,14,04,7.50
2008,03,31,14,05,7.50
2008,03,31,14,06,7.50
2008,03,31,14,07,7.40
2008,03,31,14,08,7.40
2008,03,31,14,09,7.50
2008,03,31,14,10,7.50
2008,03,31,14,11,7.60
2008,03,31,14,12,7.60
2008,03,31,14,13,7.70
2008,03,31,14,14,7.70
2008,03,31,14,15,7.70
2008,03,31,14,16,7.70
2008,03,31,14,17,7.60
2008,03,31,14,18,7.50
2008,03,31,14,19,7.40
2008,03,31,14,20,7.40
2008,03,31,14,21,7.50
2008,03,31,14,22,7.50
2008,03,31,14,23,7.60
2008,03,31,14,24,7.60
2008,03,31,14,25,7.70
2008,03,31,14,26,7.70
2008,03,31,14,27,7.80
2008,03,31,14,28,7.80
2008,03,31,14,29,7.70
2008,03,31,14,30,7.70
2008,03,31,14,31,7.60
2008,03,31,14,32,7.60
2008,03,31,14,33,7.70
2008,03,31,14,34,7.60
2008,03,31,14,35,7.60
2008,03,31,14,36,7.60
2008,03,31,14,37,7.60
2008,03,31,14,38,7.50
2008,03,31,14,39,7.50
2008,03,31,14,40,7.60
2008,03,31,14,41,7.60
2008,03,31,14,42,7.60
2008,03,31,14,43,7.60
2008,03,31,14,44,7.50
2008,03,31,14,45,7.50
2008,03,31,14,46,7.40
2008,03,31,14,47,7.50
2008,03,31,14,48,7.40
2008,03,31,14,49,7.50
2008,03,31,14,50,7.60
2008,03,31,14,51,7.70
2008,03,31,14,52,7.70
2008,03,31,14,53,7.70
2008,03,31,14,54,7.80
2008,03,31,14,55,7.80
2008,03,31,14,56,7.80
2008,03,31,14,57,7.70
2008,03,31,14,58,7.70
2008,03,31,14,59,7.60
2008,03,31,15,00,7.50
2008,03,31,15,01,7.50
2008,03,31,15,02,7.50
2008,03,31,15,03,7.40
2008,03,31,15,04,7.40
2008,03,31,15,05,7.40
2008,03,31,15,06,7.40
2008,03,31,15,07,7.50
2008,03,31,15,08,7.50
2008,03,31,15,09,7.60
2008,03,31,15,10,7.60
2008,03,31,15,11,7.60
2008,03,31,15,12,7.60
2008,03,31,15,13,7.60
2008,03,31,15,14,7.60
2008,03,31,15,15,7.60
2008,03,31,15,16,7.60
2008,03,31,15,17,7.50
2008,03,31,15,18,7.40
2008,03,31,15,19,7.30
2008,03,31,15,20,7.20
2008,03,31,15,21,7.20
2008,03,31,15,22,7.10
2008,03,31,15,23,7.00
2008,03,31,15,24,7.00
2008,03,31,15,25,7.00
2008,03,31,15,26,7.10
2008,03,31,15,27,7.20
2008,03,31,15,28,7.20
2008,03,31,15,29,7.30
2008,03,31,15,30,7.30
2008,03,31,15,31,7.30
2008,03,31,15,32,7.30
2008,03,31,15,33,7.30
2008,03,31,15,34,7.30
2008,03,31,15,35,7.30
2008,03,31,15,36,7.40
2008,03,31,15,37,7.50
2008,03,31,15,38,7.50
2008,03,31,15,39,7.60
2008,03,31,15,40,7.70
2008,03,31,15,41,7.60
2008,03,31,15,42,7.50
2008,03,31,15,43,7.50
2008,03,31,15,44,7.30
2008,03,31,15,45,7.20
2008,03,31,15,46,7.10
2008,03,31,15,47,7.00
2008,03,31,15,48,6.90
2008,03,31,15,49,6.90
2008,03,31,15,50,6.80
2008,03,31,15,51,6.80
2008,03,31,15,52,6.80
2008,03,31,15,53,6.80
2008,03,31,15,54,6.80
2008,03,31,15,55,6.80
2008,03,31,15,56,6.80
2008,03,31,15,57,6.80
2008,03,31,15,58,6.90
2008,03,31,15,59,6.90
2008,03,31,16,00,6.90
2008,03,31,16,01,6.90
2008,03,31,16,02,6.90
2008,03,31,16,03,6.90
2008,03,31,16,04,7.00
2008,03,31,16,05,7.10
2008,03,31,16,06,7.20
2008,03,31,16,07,7.20
2008,03,31,16,08,7.30
2008,03,31,16,09,7.40
2008,03,31,16,10,7.50
2008,03,31,16,11,7.60
2008,03,31,16,12,7.80
2008,03,31,16,13,7.80
2008,03,31,16,14,7.90
2008,03,31,16,15,7.90
2008,03,31,16,16,7.90
2008,03,31,16,17,7.80
2008,03,31,16,18,7.80
2008,03,31,16,19,7.80
2008,03,31,16,20,7.70
2008,03,31,16,21,7.60
2008,03,31,16,22,7.40
2008,03,31,16,23,7.30
2008,03,31,16,24,7.20
2008,03,31,16,25,7.20
2008,03,31,16,26,7.20
2008,03,31,16,27,7.20
2008,03,31,16,28,7.30
2008,03,31,16,29,7.40
2008,03,31,16,30,7.40
2008,03,31,16,31,7.50
2008,03,31,16,32,7.60
2008,03,31,16,33,7.50
2008,03,31,16,34,7.50
2008,03,31,16,35,7.50
2008,03,31,16,36,7.40
2008,03,31,16,37,7.40
2008,03,31,16,38,7.40
2008,03,31,16,39,7.50
2008,03,31,16,40,7.50
2008,03,31,16,41,7.50
2008,03,31,16,42,7.50
2008,03,31,16,43,7.50
2008,03,31,16,44,7.50
2008,03,31,16,45,7.50
2008,03,31,16,46,7.50
2008,03,31,16,47,7.60
2008,03,31,16,48,7.60
2008,03,31,16,49,7.60
2008,03,31,16,50,7.50
2008,03,31,16,51,7.40
2008,03,31,16,52,7.30
2008,03,31,16,53,7.20
2008,03,31,16,54,7.20
2008,03,31,16,55,7.20
2008,03,31,16,56,7.10
2008,03,31,16,57,7.10
2008,03,31,16,58,7.10
2008,03,31,16,59,7.10
2008,03,31,17,00,7.20
2008,03,31,17,01,7.20
2008,03,31,17,02,7.10
2008,03,31,17,03,7.10
2008,03,31,17,04,7.00
2008,03,31,17,05,7.00
2008,03,31,17,06,6.90
2008,03,31,17,07,6.90
2008,03,31,17,08,6.90
2008,03,31,17,09,7.00
2008,03,31,17,10,7.00
2008,03,31,17,11,7.00
2008,03,31,17,12,7.00
2008,03,31,17,13,7.10
2008,03,31,17,14,7.10
2008,03,31,17,15,7.10
2008,03,31,17,16,7.20
2008,03,31,17,17,7.20
2008,03,31,17,18,7.20
2008,03,31,17,19,7.20
2008,03,31,17,20,7.30
2008,03,31,17,21,7.30
2008,03,31,17,22,7.30
2008,03,31,17,23,7.40
2008,03,31,17,24,7.30
2008,03,31,17,25,7.30
2008,03,31,17,26,7.30
2008,03,31,17,27,7.30
2008,03,31,17,28,7.30
2008,03,31,17,29,7.40
2008,03,31,17,30,7.50
2008,03,31,17,31,7.50
2008,03,31,17,32,7.60
2008,03,31,17,33,7.70
2008,03,31,17,34,7.70
2008,03,31,17,35,7.80
2008,03,31,17,36,7.80
2008,03,31,17,37,7.80
2008,03,31,17,38,7.80
2008,03,31,17,39,7.80
2008,03,31,17,40,7.70
2008,03,31,17,41,7.70
2008,03,31,17,42,7.70
2008,03,31,17,43,7.70
2008,03,31,17,44,7.80
2008,03,31,17,45,7.80
2008,03,31,17,46,7.80
2008,03,31,17,47,7.80
2008,03,31,17,48,7.80
2008,03,31,17,49,7.80
2008,03,31,17,50,7.90
2008,03,31,17,51,7.80
2008,03,31,17,52,7.80
2008,03,31,17,53,7.70
2008,03,31,17,54,7.70
2008,03,31,17,55,7.70
2008,03,31,17,56,7.70
2008,03,31,17,57,7.60
2008,03,31,17,58,7.60
2008,03,31,17,59,7.60
2008,03,31,18,00,7.60
2008,03,31,18,01,7.60
2008,03,31,18,02,7.60
2008,03,31,18,03,7.70
2008,03,31,18,04,7.70
2008,03,31,18,05,7.60
2008,03,31,18,06,7.60